Stündliche Wetter Ceará Mirim

Heute, 23 Januar, Samstag

Zeit Temperatur Niederschläge Wind Luftdruck Luftfeuchtigkeit
00:00 +27°C° 0 mm 5 m/S 758 mmHg 82%
01:00 +27°C° 0 mm 5 m/S 757 mmHg 83%
02:00 +27°C° 0.1 mm 4 m/S 757 mmHg 85%
03:00 +27°C° 0.1 mm 4 m/S 756 mmHg 86%
04:00 +27°C° 0.1 mm 4 m/S 756 mmHg 87%
05:00 +27°C° 0.1 mm 4 m/S 756 mmHg 86%
06:00 +27°C° 0.1 mm 4 m/S 757 mmHg 86%
07:00 +27°C° 0.1 mm 4 m/S 757 mmHg 86%
08:00 +28°C° 0.1 mm 5 m/S 757 mmHg 77%
09:00 +30°C° 0.1 mm 5 m/S 757 mmHg 69%
10:00 +33°C° 0.1 mm 6 m/S 758 mmHg 60%
11:00 +33°C° 0 mm 6 m/S 757 mmHg 57%
12:00 +34°C° 0 mm 7 m/S 757 mmHg 54%
13:00 +35°C° 0 mm 7 m/S 757 mmHg 51%
14:00 +34°C° 0 mm 7 m/S 756 mmHg 53%
15:00 +34°C° 0 mm 7 m/S 756 mmHg 54%
16:00 +34°C° 0 mm 7 m/S 755 mmHg 56%
17:00 +32°C° 0 mm 6 m/S 755 mmHg 61%
18:00 +30°C° 0 mm 6 m/S 756 mmHg 67%
19:00 +29°C° 0 mm 5 m/S 756 mmHg 72%
20:00 +28°C° 0.1 mm 5 m/S 756 mmHg 74%
21:00 +28°C° 0.1 mm 5 m/S 757 mmHg 76%
22:00 +28°C° 0.1 mm 5 m/S 757 mmHg 79%
23:00 +27°C° 0 mm 5 m/S 757 mmHg 79%

Morgen, 24 Januar, Sonntag

Zeit Temperatur Niederschläge Wind Luftdruck Luftfeuchtigkeit
00:00 +27°C° 0 mm 4 m/S 757 mmHg 80%
01:00 +27°C° 0 mm 4 m/S 757 mmHg 80%
02:00 +27°C° 0 mm 4 m/S 756 mmHg 81%
03:00 +27°C° 0 mm 4 m/S 756 mmHg 83%
04:00 +26°C° 0 mm 4 m/S 755 mmHg 84%
05:00 +26°C° 0 mm 4 m/S 756 mmHg 83%
06:00 +27°C° 0 mm 3 m/S 756 mmHg 83%
07:00 +27°C° 0 mm 3 m/S 756 mmHg 83%
08:00 +28°C° 0 mm 4 m/S 757 mmHg 76%
09:00 +30°C° 0 mm 5 m/S 757 mmHg 69%
10:00 +32°C° 0 mm 5 m/S 757 mmHg 62%
11:00 +33°C° 0 mm 6 m/S 757 mmHg 60%
12:00 +34°C° 0 mm 6 m/S 756 mmHg 58%
13:00 +34°C° 0 mm 6 m/S 756 mmHg 55%
14:00 +34°C° 0 mm 6 m/S 755 mmHg 56%
15:00 +34°C° 0 mm 6 m/S 755 mmHg 56%
16:00 +33°C° 0 mm 6 m/S 754 mmHg 56%
17:00 +32°C° 0 mm 6 m/S 755 mmHg 62%
18:00 +30°C° 0 mm 5 m/S 755 mmHg 69%
19:00 +29°C° 0 mm 4 m/S 755 mmHg 75%
20:00 +28°C° 0.1 mm 4 m/S 756 mmHg 78%
21:00 +28°C° 0.1 mm 4 m/S 756 mmHg 80%
22:00 +27°C° 0.1 mm 4 m/S 757 mmHg 83%
23:00 +27°C° 0 mm 4 m/S 756 mmHg 83%

übermorgen, 25 Januar, Montag

Zeit Temperatur Niederschläge Wind Luftdruck Luftfeuchtigkeit
00:00 +27°C° 0 mm 4 m/S 756 mmHg 83%
01:00 +27°C° 0 mm 4 m/S 756 mmHg 83%
02:00 +27°C° 0 mm 4 m/S 756 mmHg 84%
03:00 +26°C° 0 mm 4 m/S 755 mmHg 85%
04:00 +26°C° 0 mm 3 m/S 755 mmHg 87%
05:00 +26°C° 0 mm 3 m/S 755 mmHg 87%
06:00 +26°C° 0 mm 3 m/S 755 mmHg 86%
07:00 +26°C° 0 mm 3 m/S 756 mmHg 86%
08:00 +28°C° 0 mm 4 m/S 756 mmHg 77%
09:00 +30°C° 0 mm 5 m/S 756 mmHg 68%
10:00 +33°C° 0 mm 6 m/S 756 mmHg 59%
11:00 +33°C° 0 mm 6 m/S 756 mmHg 57%
12:00 +33°C° 0 mm 6 m/S 756 mmHg 56%
13:00 +34°C° 0 mm 6 m/S 756 mmHg 55%
14:00 +33°C° 0 mm 6 m/S 755 mmHg 56%
15:00 +33°C° 0 mm 6 m/S 754 mmHg 58%
16:00 +33°C° 0 mm 7 m/S 754 mmHg 59%
17:00 +32°C° 0 mm 6 m/S 754 mmHg 64%
18:00 +30°C° 0 mm 6 m/S 755 mmHg 69%
19:00 +28°C° 0 mm 5 m/S 755 mmHg 74%
20:00 +28°C° 0 mm 5 m/S 756 mmHg 75%
21:00 +28°C° 0 mm 5 m/S 756 mmHg 77%
22:00 +28°C° 0 mm 4 m/S 756 mmHg 78%
23:00 +27°C° 0 mm 4 m/S 756 mmHg 79%

26 Januar, Dienstag

Zeit Temperatur Niederschläge Wind Luftdruck Luftfeuchtigkeit
00:00 +27°C° 0 mm 4 m/S 756 mmHg 79%
01:00 +27°C° 0 mm 4 m/S 756 mmHg 79%
02:00 +27°C° 0 mm 4 m/S 756 mmHg 81%
03:00 +26°C° 0 mm 4 m/S 755 mmHg 83%
04:00 +26°C° 0 mm 4 m/S 755 mmHg 84%
05:00 +26°C° 0 mm 4 m/S 755 mmHg 85%
06:00 +26°C° 0 mm 3 m/S 755 mmHg 85%
07:00 +26°C° 0 mm 3 m/S 756 mmHg 85%
08:00 +28°C° 0 mm 4 m/S 756 mmHg 74%
09:00 +30°C° 0 mm 5 m/S 757 mmHg 64%
10:00 +33°C° 0 mm 5 m/S 757 mmHg 53%
11:00 +34°C° 0 mm 6 m/S 756 mmHg 50%
12:00 +35°C° 0 mm 6 m/S 756 mmHg 47%
13:00 +35°C° 0 mm 6 m/S 756 mmHg 45%
14:00 +35°C° 0 mm 6 m/S 755 mmHg 47%
15:00 +34°C° 0 mm 6 m/S 755 mmHg 49%
16:00 +34°C° 0 mm 7 m/S 754 mmHg 51%
17:00 +32°C° 0 mm 6 m/S 755 mmHg 59%
18:00 +30°C° 0 mm 6 m/S 755 mmHg 66%
19:00 +28°C° 0 mm 5 m/S 756 mmHg 73%
20:00 +28°C° 0 mm 5 m/S 756 mmHg 76%
21:00 +27°C° 0 mm 5 m/S 756 mmHg 79%
22:00 +27°C° 0 mm 4 m/S 757 mmHg 81%
23:00 +27°C° 0 mm 4 m/S 757 mmHg 82%

27 Januar, Mittwoch

Zeit Temperatur Niederschläge Wind Luftdruck Luftfeuchtigkeit
00:00 +27°C° 0 mm 4 m/S 756 mmHg 83%
01:00 +26°C° 0 mm 4 m/S 756 mmHg 84%
02:00 +26°C° 0 mm 4 m/S 756 mmHg 85%
03:00 +26°C° 0 mm 4 m/S 755 mmHg 86%
04:00 +26°C° 0 mm 4 m/S 755 mmHg 87%
05:00 +26°C° 0 mm 4 m/S 755 mmHg 86%
06:00 +26°C° 0 mm 3 m/S 755 mmHg 86%
07:00 +26°C° 0 mm 3 m/S 756 mmHg 85%
08:00 +28°C° 0 mm 4 m/S 756 mmHg 76%
09:00 +30°C° 0 mm 5 m/S 756 mmHg 67%
10:00 +33°C° 0 mm 6 m/S 757 mmHg 58%
11:00 +34°C° 0 mm 6 m/S 756 mmHg 54%
12:00 +35°C° 0 mm 6 m/S 756 mmHg 51%
13:00 +35°C° 0 mm 7 m/S 756 mmHg 48%
14:00 +35°C° 0 mm 7 m/S 755 mmHg 50%
15:00 +34°C° 0 mm 7 m/S 755 mmHg 52%
16:00 +34°C° 0 mm 7 m/S 754 mmHg 55%
17:00 +33°C° 0 mm 7 m/S 755 mmHg 61%
18:00 +30°C° 0 mm 6 m/S 755 mmHg 68%
19:00 +29°C° 0 mm 5 m/S 755 mmHg 75%
20:00 +28°C° 0 mm 5 m/S 756 mmHg 78%
21:00 +28°C° 0 mm 5 m/S 756 mmHg 81%
22:00 +27°C° 0 mm 4 m/S 757 mmHg 84%
23:00 +27°C° 0 mm 4 m/S 756 mmHg 85%

28 Januar, Donnerstag

Zeit Temperatur Niederschläge Wind Luftdruck Luftfeuchtigkeit
00:00 +27°C° 0 mm 4 m/S 756 mmHg 86%
01:00 +27°C° 0 mm 3 m/S 756 mmHg 87%
02:00 +26°C° 0 mm 3 m/S 756 mmHg 88%
03:00 +26°C° 0 mm 3 m/S 755 mmHg 89%
04:00 +26°C° 0 mm 3 m/S 755 mmHg 90%
05:00 +26°C° 0 mm 3 m/S 755 mmHg 90%
06:00 +26°C° 0 mm 3 m/S 756 mmHg 89%
07:00 +26°C° 0 mm 3 m/S 756 mmHg 89%
08:00 +28°C° 0 mm 3 m/S 756 mmHg 80%
09:00 +29°C° 0 mm 4 m/S 756 mmHg 70%
10:00 +32°C° 0 mm 4 m/S 757 mmHg 61%
11:00 +33°C° 0.1 mm 4 m/S 756 mmHg 59%
12:00 +33°C° 0.1 mm 4 m/S 756 mmHg 57%
13:00 +34°C° 0.1 mm 5 m/S 756 mmHg 55%
14:00 +33°C° 0.2 mm 5 m/S 755 mmHg 55%
15:00 +33°C° 0.2 mm 5 m/S 755 mmHg 56%
16:00 +33°C° 0.2 mm 5 m/S 755 mmHg 56%
Mehr zeigen

Wir brauchen deine Erlaubnis

Meteoprog und unser Service Anbieter werden persönliche Daten aufbewahren, so wie Cookies, Geräte Bezeichnung oder ähnliche Technologien von deinem Gerät und Prozess, so wie Persönliche Daten Inhalte und Werbungen, genauso wie social Media und den Verkehr zu analysieren.

  • Aufbewahrung und/oder Zugang zu deiner Geräte Informationen.

    Cookies, Geräte Bezeichnung oder andere Informationen, können aufbewahrt oder Zugang zu deinem Gerät erhalten, für den Grund, der oben angegeben wird.

  • Personalisierte Werbung und Inhalte, Messungen, Einblick in das Publikum und Produkt Entwicklung.

    Werbungen und Inhalte können personalisiert werden, basierend auf ein Profil. Mehr Daten können besser personalisierte Werbungen und Inhalte hinzufügen. Werbung und Inhalte können gezeigt und gemessen werden. Einblicke über das Publikum, welche die Werbung gesehen haben und den Inhalt, können abgeleitet werden. So wie Daten können genutzt werden, um es zu verbessern oder die Benutzer Erfahrung zu verbessern das System und die Software.

Wenn du “Ich stimme zu” klickst, erlaubst du uns, die Cookies zu benutzen die Geräte Bezeichnung, den Web oder ähnliche Technologien zu benutzen. Deine Settings, können in deinem Gerät bei deinem Browser geändert werden.

Für den bestimmten Zweck, berechtigten Interessen beruhen darauf, mehr als auf den Inhalt. Du kannst mehr darüber in unseren Privaten und Cookie Politik lesen.